Hourly Weather Elbasan

Today, 9 August, Sunday

Time Temperature Precipitation Wind Pressure Humidity
00:00 +21°C° 0 mm 2 mps 733 mmHg 68%
01:00 +21°C° 0 mm 2 mps 733 mmHg 69%
02:00 +21°C° 0 mm 2 mps 733 mmHg 69%
03:00 +21°C° 0 mm 2 mps 733 mmHg 69%
04:00 +21°C° 0 mm 2 mps 733 mmHg 70%
05:00 +23°C° 0 mm 2 mps 733 mmHg 66%
06:00 +25°C° 0 mm 2 mps 733 mmHg 62%
07:00 +26°C° 0 mm 2 mps 733 mmHg 58%
08:00 +28°C° 0 mm 2 mps 733 mmHg 51%
09:00 +30°C° 0 mm 2 mps 734 mmHg 44%
10:00 +32°C° 0 mm 2 mps 734 mmHg 36%
11:00 +34°C° 0 mm 2 mps 734 mmHg 35%
12:00 +34°C° 0 mm 3 mps 733 mmHg 34%
13:00 +35°C° 0 mm 3 mps 733 mmHg 32%
14:00 +34°C° 0 mm 3 mps 733 mmHg 34%
15:00 +34°C° 0 mm 3 mps 733 mmHg 36%
16:00 +33°C° 0 mm 3 mps 733 mmHg 37%
17:00 +31°C° 0 mm 2 mps 733 mmHg 44%
18:00 +29°C° 0 mm 2 mps 733 mmHg 50%
19:00 +27°C° 0 mm 1 mps 733 mmHg 57%
20:00 +26°C° 0 mm 2 mps 733 mmHg 59%
21:00 +25°C° 0 mm 2 mps 733 mmHg 62%
22:00 +24°C° 0 mm 2 mps 733 mmHg 64%
23:00 +24°C° 0 mm 2 mps 733 mmHg 65%

Tomorrow, 10 August, Monday

Time Temperature Precipitation Wind Pressure Humidity
00:00 +24°C° 0 mm 2 mps 733 mmHg 65%
01:00 +23°C° 0 mm 2 mps 733 mmHg 65%
02:00 +23°C° 0 mm 2 mps 733 mmHg 65%
03:00 +23°C° 0 mm 2 mps 733 mmHg 66%
04:00 +23°C° 0 mm 2 mps 733 mmHg 66%
05:00 +24°C° 0 mm 2 mps 733 mmHg 63%
06:00 +26°C° 0 mm 2 mps 733 mmHg 59%
07:00 +27°C° 0 mm 2 mps 733 mmHg 55%
08:00 +29°C° 0 mm 1 mps 734 mmHg 48%
09:00 +31°C° 0 mm 1 mps 734 mmHg 42%
10:00 +33°C° 0 mm 1 mps 734 mmHg 35%
11:00 +34°C° 0 mm 1 mps 734 mmHg 34%
12:00 +35°C° 0 mm 2 mps 734 mmHg 32%
13:00 +36°C° 0 mm 3 mps 734 mmHg 31%
14:00 +35°C° 0 mm 3 mps 734 mmHg 34%
15:00 +34°C° 0 mm 3 mps 733 mmHg 37%
16:00 +33°C° 0 mm 3 mps 733 mmHg 40%
17:00 +30°C° 0 mm 2 mps 733 mmHg 47%
18:00 +28°C° 0 mm 2 mps 733 mmHg 53%
19:00 +26°C° 0 mm 1 mps 734 mmHg 60%
20:00 +26°C° 0.1 mm 1 mps 734 mmHg 62%
21:00 +25°C° 0.1 mm 1 mps 734 mmHg 64%
22:00 +25°C° 0.1 mm 1 mps 734 mmHg 66%
23:00 +24°C° 0 mm 1 mps 734 mmHg 66%

Day after tomorrow, 11 August, Tuesday

Time Temperature Precipitation Wind Pressure Humidity
00:00 +24°C° 0 mm 1 mps 734 mmHg 67%
01:00 +24°C° 0 mm 1 mps 734 mmHg 67%
02:00 +23°C° 0 mm 1 mps 734 mmHg 67%
03:00 +23°C° 0 mm 1 mps 734 mmHg 68%
04:00 +23°C° 0 mm 1 mps 734 mmHg 68%
05:00 +24°C° 0 mm 1 mps 734 mmHg 64%
06:00 +26°C° 0 mm 1 mps 734 mmHg 60%
07:00 +27°C° 0 mm 1 mps 735 mmHg 55%
08:00 +29°C° 0 mm 1 mps 735 mmHg 50%
09:00 +31°C° 0 mm 1 mps 735 mmHg 44%
10:00 +33°C° 0 mm 1 mps 735 mmHg 39%
11:00 +34°C° 0 mm 2 mps 735 mmHg 38%
12:00 +35°C° 0 mm 3 mps 735 mmHg 37%
13:00 +35°C° 0 mm 3 mps 735 mmHg 36%
14:00 +34°C° 0.1 mm 3 mps 735 mmHg 39%
15:00 +33°C° 0.1 mm 3 mps 734 mmHg 42%
16:00 +31°C° 0.1 mm 3 mps 734 mmHg 46%
17:00 +30°C° 0.1 mm 2 mps 734 mmHg 52%
18:00 +28°C° 0.1 mm 1 mps 734 mmHg 58%
19:00 +26°C° 0.1 mm 1 mps 734 mmHg 65%
20:00 +26°C° 0.1 mm 1 mps 734 mmHg 67%
21:00 +25°C° 0.1 mm 1 mps 734 mmHg 69%
22:00 +24°C° 0.1 mm 1 mps 734 mmHg 71%
23:00 +24°C° 0 mm 1 mps 734 mmHg 71%

12 August, Wednesday

Time Temperature Precipitation Wind Pressure Humidity
00:00 +24°C° 0 mm 1 mps 734 mmHg 72%
01:00 +22°C° 0 mm 0 mps 734 mmHg 72%
02:00 +23°C° 0 mm 1 mps 734 mmHg 73%
03:00 +23°C° 0 mm 1 mps 734 mmHg 73%
04:00 +23°C° 0 mm 1 mps 734 mmHg 74%
05:00 +24°C° 0 mm 1 mps 734 mmHg 69%
06:00 +24°C° 0 mm 0 mps 734 mmHg 64%
07:00 +25°C° 0 mm 0 mps 734 mmHg 59%
08:00 +29°C° 0.1 mm 1 mps 734 mmHg 53%
09:00 +31°C° 0.1 mm 1 mps 735 mmHg 47%
10:00 +33°C° 0.1 mm 1 mps 735 mmHg 41%
11:00 +34°C° 0.3 mm 2 mps 735 mmHg 40%
12:00 +35°C° 0.3 mm 2 mps 734 mmHg 39%
13:00 +35°C° 0.3 mm 3 mps 734 mmHg 39%
14:00 +34°C° 0.9 mm 3 mps 734 mmHg 45%
15:00 +31°C° 0.9 mm 3 mps 734 mmHg 52%
16:00 +30°C° 0.9 mm 2 mps 734 mmHg 59%
17:00 +28°C° 0.4 mm 2 mps 734 mmHg 63%
18:00 +27°C° 0.4 mm 2 mps 734 mmHg 68%
19:00 +25°C° 0.4 mm 1 mps 734 mmHg 73%
20:00 +25°C° 0.2 mm 1 mps 734 mmHg 73%
21:00 +24°C° 0.2 mm 1 mps 734 mmHg 73%
22:00 +24°C° 0.2 mm 1 mps 735 mmHg 73%
23:00 +24°C° 0 mm 1 mps 735 mmHg 72%

13 August, Thursday

Time Temperature Precipitation Wind Pressure Humidity
00:00 +23°C° 0 mm 1 mps 734 mmHg 71%
01:00 +23°C° 0 mm 1 mps 734 mmHg 70%
02:00 +23°C° 0 mm 1 mps 734 mmHg 70%
03:00 +23°C° 0 mm 1 mps 734 mmHg 70%
04:00 +23°C° 0 mm 1 mps 734 mmHg 71%
05:00 +24°C° 0 mm 1 mps 734 mmHg 67%
06:00 +26°C° 0 mm 1 mps 734 mmHg 63%
07:00 +27°C° 0 mm 1 mps 735 mmHg 60%
08:00 +29°C° 0 mm 1 mps 735 mmHg 53%
09:00 +31°C° 0 mm 1 mps 735 mmHg 46%
10:00 +34°C° 0 mm 1 mps 735 mmHg 39%
11:00 +35°C° 0 mm 2 mps 735 mmHg 37%
12:00 +36°C° 0 mm 2 mps 735 mmHg 36%
13:00 +36°C° 0 mm 3 mps 734 mmHg 35%
14:00 +35°C° 0 mm 3 mps 734 mmHg 38%
15:00 +34°C° 0 mm 3 mps 734 mmHg 41%
16:00 +33°C° 0 mm 3 mps 734 mmHg 44%
17:00 +31°C° 0 mm 2 mps 734 mmHg 50%
18:00 +29°C° 0 mm 1 mps 734 mmHg 55%
19:00 +27°C° 0 mm 1 mps 734 mmHg 61%
20:00 +27°C° 0 mm 1 mps 734 mmHg 62%
21:00 +26°C° 0 mm 1 mps 734 mmHg 63%
22:00 +25°C° 0 mm 1 mps 734 mmHg 65%
23:00 +25°C° 0 mm 1 mps 734 mmHg 65%

14 August, Friday

Time Temperature Precipitation Wind Pressure Humidity
00:00 +25°C° 0 mm 1 mps 734 mmHg 65%
01:00 +25°C° 0 mm 1 mps 734 mmHg 66%
02:00 +24°C° 0 mm 1 mps 734 mmHg 67%
03:00 +24°C° 0 mm 1 mps 734 mmHg 67%
04:00 +24°C° 0 mm 1 mps 734 mmHg 68%
05:00 +25°C° 0 mm 1 mps 734 mmHg 64%
06:00 +27°C° 0 mm 1 mps 734 mmHg 60%
07:00 +28°C° 0 mm 1 mps 734 mmHg 55%
08:00 +30°C° 0 mm 1 mps 735 mmHg 50%
09:00 +32°C° 0 mm 1 mps 735 mmHg 44%
10:00 +34°C° 0 mm 1 mps 735 mmHg 38%
11:00 +35°C° 0 mm 2 mps 735 mmHg 36%
12:00 +36°C° 0 mm 3 mps 734 mmHg 34%
13:00 +37°C° 0 mm 3 mps 734 mmHg 32%
14:00 +36°C° 0 mm 3 mps 734 mmHg 34%
15:00 +35°C° 0 mm 4 mps 734 mmHg 36%
16:00 +35°C° 0 mm 4 mps 734 mmHg 37%
17:00 +33°C° 0 mm 3 mps 733 mmHg 44%
18:00 +29°C° 0 mm 2 mps 733 mmHg 51%
19:00 +27°C° 0 mm 1 mps 733 mmHg 57%
20:00 +27°C° 0 mm 1 mps 734 mmHg 59%
21:00 +26°C° 0 mm 1 mps 734 mmHg 60%
22:00 +26°C° 0 mm 1 mps 734 mmHg 61%
23:00 +25°C° 0 mm 1 mps 734 mmHg 62%
Show more